Delaware, OH

9:36 PM EST on February 10, 2016 (GMT -0500)
Delaware Municipal

Weather History for KDLZ - November, 2013

Change the Weather History Date:

Tuesday, November 26, 2013

  Actual Average Record
Temperature  
Mean Temperature 31 °F -  
Max Temperature 32 °F 46 °F 63 °F (1987)
Min Temperature 30 °F 26 °F 9 °F (1990)
Degree Days  
Heating Degree Days 34    
Moisture  
Dew Point 29 °F    
Average Humidity 93    
Maximum Humidity 100    
Minimum Humidity 86    
Precipitation  
Precipitation 0.01 in - - ()
Sea Level Pressure  
Sea Level Pressure 30.03 in    
Wind  
Wind Speed 4 mph (WSW)    
Max Wind Speed 10 mph    
Max Gust Speed -    
Visibility 6 miles    
Events Snow    
Averages and records for this station are not official NWS values.
T = Trace of Precipitation, MM = Missing Value Source: NWS Daily Summary

Daily Weather History Graph

Daily Weather History Graph

Search for Another Location

Airport or City:

Trip Planner

Search our weather history database for the weather conditions in past years. The results will help you decide how hot, cold, wet, or windy it might be!

Date:

Astronomy

Nov. 26, 2013 Rise Set
Actual Time 7:30 AM EST 5:08 PM EST
Civil Twilight 7:01 AM EST 5:38 PM EST
Nautical Twilight 6:27 AM EST 6:11 PM EST
Astronomical Twilight 5:54 AM EST 6:44 PM EST
Moon 12:32 AM EST (11/26) 1:15 PM EST (11/26)
Length of Visible Light 10h 37m
Length of Day
9h 37m
Last Quarter, 41% of the Moon is Illuminated
Nov 26
Last Quarter
Dec 2
New
Dec 9
First Quarter
Dec 17
Full
Dec 25
Last Quarter

Hourly Weather History & Observations

Time (EST) Temp. Windchill Dew Point Humidity Pressure Visibility Wind Dir Wind Speed Gust Speed Precip Events Conditions
12:16 AM 30.2 °F 24.3 °F 28.4 °F 93% 30.17 in 3.0 mi SSW 5.8 mph - N/A Snow Light Snow
12:37 AM 30.2 °F 24.3 °F 28.4 °F 93% 30.17 in 5.0 mi SSW 5.8 mph - N/A Snow Light Snow
12:56 AM 30.2 °F 22.6 °F 28.4 °F 93% 30.17 in 7.0 mi SSW 8.1 mph - N/A Snow Light Snow
1:16 AM 30.2 °F 23.4 °F 28.4 °F 93% 30.18 in 10.0 mi SSW 6.9 mph - N/A   Overcast
1:37 AM 30.2 °F 21.3 °F 28.4 °F 93% 30.18 in 10.0 mi SSW 10.4 mph - N/A   Overcast
1:56 AM 30.2 °F 22.6 °F 28.4 °F 93% 30.17 in 10.0 mi SSW 8.1 mph - N/A   Overcast
2:16 AM 30.2 °F 23.4 °F 28.4 °F 93% 30.16 in 10.0 mi SSW 6.9 mph - N/A   Overcast
2:37 AM 30.2 °F 23.4 °F 28.4 °F 93% 30.17 in 10.0 mi SW 6.9 mph - N/A   Overcast
2:56 AM 30.2 °F 23.4 °F 28.4 °F 93% 30.16 in 10.0 mi SSW 6.9 mph - N/A   Overcast
3:17 AM 30.2 °F 25.4 °F 28.4 °F 93% 30.16 in 10.0 mi SSW 4.6 mph - N/A   Overcast
3:36 AM 30.2 °F 24.3 °F 28.4 °F 93% 30.16 in 10.0 mi SSW 5.8 mph - N/A   Overcast
3:56 AM 30.2 °F 23.4 °F 28.4 °F 93% 30.17 in 10.0 mi SSW 6.9 mph - N/A   Overcast
4:17 AM 30.2 °F 24.3 °F 28.4 °F 93% 30.16 in 10.0 mi South 5.8 mph - N/A   Overcast
4:36 AM 30.2 °F 25.4 °F 28.4 °F 93% 30.15 in 10.0 mi South 4.6 mph - N/A   Overcast
4:56 AM 30.2 °F 26.7 °F 28.4 °F 93% 30.14 in 7.0 mi South 3.5 mph - N/A   Overcast
5:17 AM 30.2 °F - 28.4 °F 93% 30.12 in 7.0 mi Calm Calm - N/A   Overcast
5:36 AM 30.2 °F - 28.4 °F 93% 30.12 in 7.0 mi Calm Calm - N/A   Overcast
5:56 AM 30.2 °F 25.4 °F 28.4 °F 93% 30.12 in 10.0 mi SSW 4.6 mph - N/A   Overcast
6:17 AM 30.2 °F 26.7 °F 28.4 °F 93% 30.12 in 10.0 mi South 3.5 mph - N/A   Overcast
6:36 AM 30.2 °F 25.4 °F 30.2 °F 100% 30.12 in 10.0 mi South 4.6 mph - N/A   Overcast
6:56 AM 30.2 °F 24.3 °F 30.2 °F 100% 30.12 in 10.0 mi SSW 5.8 mph - N/A   Overcast
7:17 AM 30.2 °F 24.3 °F 30.2 °F 100% 30.12 in 10.0 mi SSW 5.8 mph - N/A   Overcast
7:36 AM 30.2 °F 25.4 °F 30.2 °F 100% 30.12 in 10.0 mi SSW 4.6 mph - N/A   Overcast
7:56 AM 30.2 °F 26.7 °F 30.2 °F 100% 30.10 in 10.0 mi South 3.5 mph - N/A   Overcast
8:17 AM 32.0 °F - 30.2 °F 93% 30.09 in 7.0 mi Calm Calm - N/A   Overcast
8:36 AM 32.0 °F 28.7 °F 30.2 °F 93% 30.11 in 7.0 mi SSW 3.5 mph - N/A   Overcast
8:57 AM 32.0 °F 26.4 °F 30.2 °F 93% 30.12 in 7.0 mi SW 5.8 mph - N/A   Overcast
9:17 AM 32.0 °F 27.5 °F 30.2 °F 93% 30.09 in 7.0 mi South 4.6 mph - N/A   Overcast
9:36 AM 32.0 °F 28.7 °F 30.2 °F 93% 30.09 in 7.0 mi SSW 3.5 mph - N/A   Overcast
9:57 AM 32.0 °F - 30.2 °F 93% 30.09 in 5.0 mi Calm Calm - N/A   Overcast
10:17 AM 32.0 °F - 30.2 °F 93% 30.07 in 7.0 mi Calm Calm - N/A   Overcast
10:36 AM 32.0 °F - 30.2 °F 93% 30.10 in 1.8 mi Calm Calm - N/A Snow Light Snow
10:57 AM 32.0 °F - 30.2 °F 93% 30.10 in 1.0 mi Calm Calm - N/A Snow Light Snow
11:17 AM 32.0 °F - 30.2 °F 93% 30.08 in 0.8 mi Calm Calm - N/A Snow Light Snow
11:36 AM 32.0 °F 28.7 °F 30.2 °F 93% 30.07 in 1.2 mi SSW 3.5 mph - N/A Snow Light Snow
11:57 AM 32.0 °F 28.7 °F 30.2 °F 93% 30.05 in 1.5 mi SW 3.5 mph - N/A Snow Light Snow
12:17 PM 32.0 °F - 30.2 °F 93% 30.05 in 2.5 mi Calm Calm - N/A Snow Light Snow
12:36 PM 32.0 °F - 30.2 °F 93% 30.03 in 3.0 mi Calm Calm - N/A   Overcast
12:57 PM 32.0 °F - 30.2 °F 93% 30.02 in 3.0 mi Calm Calm - N/A   Overcast
1:16 PM 32.0 °F - 30.2 °F 93% 30.00 in 2.5 mi Calm Calm - N/A Snow Light Snow
1:36 PM 32.0 °F - 30.2 °F 93% 29.98 in 2.5 mi Calm Calm - N/A Snow Light Snow
1:57 PM 32.0 °F - 30.2 °F 93% 29.98 in 2.5 mi Calm Calm - N/A   Overcast
2:16 PM 32.0 °F - 28.4 °F 87% 29.98 in 4.0 mi Calm Calm - N/A   Overcast
2:36 PM 32.0 °F - 28.4 °F 87% 29.97 in 5.0 mi Calm Calm - N/A   Overcast
2:57 PM 32.0 °F - 28.4 °F 87% 29.95 in 7.0 mi Calm Calm - N/A Snow Light Snow
3:16 PM 32.0 °F 28.7 °F 28.4 °F 87% 29.94 in 7.0 mi North 3.5 mph - N/A Snow Light Snow
3:36 PM 32.0 °F 28.7 °F 28.4 °F 87% 29.95 in 7.0 mi North 3.5 mph - N/A   Overcast
3:57 PM 32.0 °F 28.7 °F 28.4 °F 87% 29.95 in 4.0 mi North 3.5 mph - N/A Snow Light Snow
4:16 PM 32.0 °F 27.5 °F 28.4 °F 87% 29.94 in 1.8 mi North 4.6 mph - N/A Snow Light Snow
4:36 PM 32.0 °F 28.7 °F 30.2 °F 93% 29.94 in 1.8 mi North 3.5 mph - N/A Snow Light Snow
4:57 PM 30.2 °F 26.7 °F 28.4 °F 93% 29.94 in 2.5 mi North 3.5 mph - N/A Snow Light Snow
5:16 PM 30.2 °F 25.4 °F 28.4 °F 93% 29.94 in 2.0 mi NNW 4.6 mph - N/A Snow Light Snow
5:36 PM 30.2 °F 26.7 °F 28.4 °F 93% 29.93 in 3.0 mi NNW 3.5 mph - N/A Snow Light Snow
5:57 PM 30.2 °F 26.7 °F 28.4 °F 93% 29.92 in 3.0 mi NNW 3.5 mph - N/A Snow Light Snow
6:16 PM 30.2 °F - 28.4 °F 93% 29.92 in 3.0 mi Calm Calm - N/A Snow Light Snow
6:37 PM 30.2 °F - 28.4 °F 93% 29.92 in 2.0 mi Calm Calm - N/A Snow Light Snow
6:56 PM 30.2 °F 26.7 °F 30.2 °F 100% 29.92 in 1.5 mi North 3.5 mph - N/A Snow Light Snow
7:16 PM 30.2 °F 26.7 °F 28.4 °F 93% 29.92 in 1.5 mi NNW 3.5 mph - N/A Snow Light Snow
7:37 PM 30.2 °F 26.7 °F 28.4 °F 93% 29.91 in 2.0 mi NNW 3.5 mph - N/A Snow Light Snow
7:57 PM 30.2 °F - 28.4 °F 93% 29.92 in 2.0 mi Calm Calm - 0.01 in Snow Light Snow
8:16 PM 30.2 °F - 28.4 °F 93% 29.90 in 3.0 mi Calm Calm - N/A Snow Light Snow
8:37 PM 30.2 °F 26.7 °F 28.4 °F 93% 29.90 in 5.0 mi NW 3.5 mph - N/A   Overcast
8:57 PM 30.2 °F 26.7 °F 28.4 °F 93% 29.90 in 5.0 mi NW 3.5 mph - N/A   Mostly Cloudy
9:16 PM 30.2 °F 26.7 °F 28.4 °F 93% 29.90 in 7.0 mi NW 3.5 mph - N/A   Overcast
9:37 PM 30.2 °F 25.4 °F 28.4 °F 93% 29.90 in 7.0 mi NW 4.6 mph - N/A   Overcast
9:57 PM 30.2 °F 22.6 °F 28.4 °F 93% 29.89 in 5.0 mi NW 8.1 mph - N/A   Mostly Cloudy
10:16 PM 30.2 °F 24.3 °F 28.4 °F 93% 29.89 in 7.0 mi NW 5.8 mph - N/A   Mostly Cloudy
10:37 PM 30.2 °F 24.3 °F 26.6 °F 86% 29.89 in 7.0 mi NW 5.8 mph - N/A   Mostly Cloudy
10:56 PM 30.2 °F 24.3 °F 26.6 °F 86% 29.88 in 7.0 mi NW 5.8 mph - N/A   Mostly Cloudy
11:17 PM 30.2 °F 22.6 °F 26.6 °F 86% 29.89 in 7.0 mi NW 8.1 mph - N/A   Mostly Cloudy
11:37 PM 30.2 °F 22.6 °F 26.6 °F 86% 29.89 in 10.0 mi NW 8.1 mph - N/A   Overcast
11:56 PM 30.2 °F 23.4 °F 26.6 °F 86% 29.88 in 10.0 mi NW 6.9 mph - N/A   Mostly Cloudy